Ketchikan, AK

5:34 PM AKDT on May 22, 2018 (GMT -0800)
Ketchikan International

Weather History for PAKT - September, 2012

Change the Weather History Date:

Sunday, September 9, 2012

  Actual Average Record
Temperature  
Mean Temperature 52 °F -  
Max Temperature 55 °F 60 °F 73 °F (1989)
Min Temperature 48 °F 48 °F 37 °F (2004)
Degree Days  
Heating Degree Days 12    
Growing Degree Days 2 (Base 50)    
Moisture  
Dew Point 49 °F    
Average Humidity 89    
Maximum Humidity 100    
Minimum Humidity 72    
Precipitation  
Precipitation 0.93 in - - ()
Sea Level Pressure  
Sea Level Pressure 29.61 in    
Wind  
Wind Speed 9 mph (SE)    
Max Wind Speed 22 mph    
Max Gust Speed 32 mph    
Visibility 8 miles    
Events Rain    
Averages and records for this station are not official NWS values.
T = Trace of Precipitation, MM = Missing Value Source: NWS Daily Summary

Daily Weather History Graph

Daily Weather History Graph

Search for Another Location

Airport or City:

Astronomy

Sep. 09, 2012 Rise Set
Actual Time 6:08 AM AKDT 7:17 PM AKDT
Civil Twilight 5:31 AM AKDT 7:55 PM AKDT
Nautical Twilight 4:45 AM AKDT 8:40 PM AKDT
Astronomical Twilight 3:54 AM AKDT 9:30 PM AKDT
Moon 11:52 PM AKDT (9/9) 3:54 PM AKDT (9/9)
Length of Visible Light 14h 23m
Length of Day
13h 08m
Last Quarter, 38% of the Moon is Illuminated
Sep 9
Last Quarter
Sep 15
New
Sep 22
First Quarter
Sep 29
Full
Oct 7
Last Quarter

Hourly Weather History & Observations

Time (AKDT) Temp. Dew Point Humidity Pressure Visibility Wind Dir Wind Speed Gust Speed Precip Events Conditions
12:02 AM 57.2 °F 55.4 °F 94% 29.60 in 3.0 mi SE 10.4 mph - 0.03 in Rain Rain
12:33 AM 55.4 °F 55.4 °F 100% 29.61 in 2.5 mi West 5.8 mph 16.1 mph 0.16 in Rain Heavy Rain
12:37 AM 55.4 °F 53.6 °F 94% 29.61 in 3.0 mi Variable 6.9 mph 16.1 mph 0.17 in Rain Rain
12:53 AM 53.1 °F 51.1 °F 93% 29.63 in 6.0 mi NW 9.2 mph 26.5 mph 0.22 in Rain Rain
1:53 AM 52.0 °F 50.0 °F 93% 29.61 in 10.0 mi Calm Calm - 0.09 in Rain Light Rain
2:53 AM 52.0 °F 50.0 °F 93% 29.60 in 10.0 mi SE 6.9 mph - 0.03 in Rain Light Rain
3:48 AM 51.8 °F 50.0 °F 94% 29.60 in 7.0 mi ESE 10.4 mph - 0.10 in Rain Rain
3:53 AM 52.0 °F 50.0 °F 93% 29.60 in 6.0 mi ESE 10.4 mph - 0.12 in Rain Rain
4:02 AM 51.8 °F 50.0 °F 94% 29.60 in 6.0 mi SE 6.9 mph - 0.02 in Rain Rain
4:19 AM 51.8 °F 50.0 °F 94% 29.60 in 7.0 mi SE 6.9 mph - 0.07 in Rain Rain
4:28 AM 51.8 °F 50.0 °F 94% 29.60 in 7.0 mi ESE 8.1 mph - 0.09 in Rain Rain
4:53 AM 52.0 °F 50.0 °F 93% 29.59 in 8.0 mi SE 12.7 mph - 0.13 in Rain Light Rain
5:10 AM 51.8 °F 50.0 °F 94% 29.59 in 10.0 mi SE 9.2 mph - 0.01 in Rain Light Rain
5:37 AM 51.8 °F 50.0 °F 94% 29.58 in 7.0 mi ESE 10.4 mph - 0.02 in Rain Light Rain
5:53 AM 51.1 °F 50.0 °F 96% 29.58 in 5.0 mi SE 11.5 mph - 0.04 in Rain Light Rain
6:03 AM 51.8 °F 50.0 °F 94% 29.58 in 4.0 mi SE 10.4 mph - 0.04 in Rain Rain
6:53 AM 51.1 °F 50.0 °F 96% 29.58 in 4.0 mi SE 12.7 mph 24.2 mph 0.18 in Rain Rain
7:53 AM 52.0 °F 50.0 °F 93% 29.57 in 7.0 mi ESE 16.1 mph 21.9 mph 0.09 in   Mostly Cloudy
8:53 AM 53.1 °F 51.1 °F 93% 29.56 in 10.0 mi SE 13.8 mph - N/A   Mostly Cloudy
9:53 AM 54.0 °F 50.0 °F 86% 29.56 in 10.0 mi SE 16.1 mph 23.0 mph 0.01 in   Mostly Cloudy
10:53 AM 54.0 °F 48.0 °F 80% 29.56 in 10.0 mi SE 16.1 mph - N/A   Overcast
11:53 AM 55.0 °F 48.0 °F 77% 29.55 in 10.0 mi SE 21.9 mph 29.9 mph 0.00 in   Overcast
12:42 PM 53.6 °F 48.2 °F 82% 29.55 in 7.0 mi SE 18.4 mph 32.2 mph 0.00 in Rain Light Rain
12:53 PM 53.1 °F 48.9 °F 86% 29.57 in 8.0 mi SE 13.8 mph 32.2 mph 0.00 in Rain Light Rain
1:53 PM 55.0 °F 48.9 °F 80% 29.57 in 10.0 mi SE 18.4 mph 28.8 mph 0.00 in   Overcast
2:53 PM 54.0 °F 50.0 °F 86% 29.59 in 10.0 mi SE 12.7 mph 18.4 mph 0.01 in Rain Light Rain
3:53 PM 55.0 °F 46.9 °F 74% 29.61 in 10.0 mi SE 9.2 mph 23.0 mph 0.00 in   Overcast
4:53 PM 55.0 °F 46.0 °F 72% 29.64 in 10.0 mi Calm Calm - N/A   Mostly Cloudy
5:53 PM 54.0 °F 45.0 °F 72% 29.66 in 10.0 mi Calm Calm - N/A   Mostly Cloudy
6:53 PM 52.0 °F 45.0 °F 77% 29.67 in 10.0 mi Calm Calm - N/A   Overcast
7:53 PM 51.1 °F 46.0 °F 83% 29.69 in 10.0 mi Calm Calm - 0.00 in Rain Light Rain
8:53 PM 48.9 °F 46.0 °F 90% 29.71 in 10.0 mi Calm Calm - 0.00 in   Mostly Cloudy
9:53 PM 48.0 °F 45.0 °F 89% 29.73 in 10.0 mi SSE 3.5 mph - 0.01 in Rain Light Rain
10:53 PM 48.9 °F 46.0 °F 90% 29.74 in 10.0 mi SSE 3.5 mph - 0.00 in   Overcast
11:53 PM 48.0 °F 46.0 °F 93% 29.75 in 10.0 mi South 3.5 mph - 0.00 in Rain Light Rain